Location: Newark
(44.3248°N, 23.7839°E)
Time: 00:40:24
(UTC+00:00)

UNISAT 6 - Visible Passes

Search period start: 19 April 2024 00:00
Search period end: 29 April 2024 00:00
Orbit: 593 x 670 km, 97.7° (Epoch: 18 April)

Date Brightness Start Highest point End Pass type
(mag) Time Alt. Az. Time Alt. Az. Time Alt. Az.
19 Apr ? 01:02:21 10° E 01:04:54 15° ENE 01:07:26 10° NNE visible
19 Apr ? 02:36:26 10° S 02:40:50 60° W 02:45:09 10° NNW visible
20 Apr ? 01:22:04 10° ESE 01:25:34 23° ENE 01:29:02 10° NNE visible
20 Apr ? 02:57:41 10° SSW 03:01:45 36° W 03:05:47 10° NNW visible
21 Apr ? 01:42:14 10° SE 01:46:17 37° ENE 01:50:16 10° N visible
22 Apr ? 02:02:41 10° SSE 02:07:01 60° ENE 02:11:18 10° N visible
23 Apr ? 00:50:38 10° E 00:52:03 11° ENE 00:53:28 10° NE visible
23 Apr ? 02:23:24 10° S 02:27:49 81° W 02:32:09 10° NNW visible
24 Apr ? 01:09:41 10° ESE 01:12:37 18° ENE 01:15:30 10° NNE visible
24 Apr ? 02:44:24 10° S 02:48:38 48° W 02:52:49 10° NNW visible
25 Apr ? 01:29:31 10° SE 01:33:13 27° ENE 01:36:51 10° N visible
26 Apr ? 01:49:43 10° SE 01:53:51 44° ENE 01:57:56 10° N visible
27 Apr ? 02:10:12 10° SSE 02:14:32 74° ENE 02:18:48 10° N visible
28 Apr ? 00:57:20 10° E 00:59:23 13° ENE 01:01:27 10° NNE visible
28 Apr ? 02:30:57 10° S 02:35:15 66° WSW 02:39:31 10° NNW visible
